User: anonymous   Login
Location: Pcim
(49.7500°N, 19.9670°E)
Time: 00:59:55
(UTC+02:00)
Language:

SO-50 - Orbit

View from above orbital plane
View from above orbital plane
View from above satellite
View from above satellite

Ground track
Ground track

The orbit data is extracted from the following two-line orbital elements,

1 27607U 02058C   24109.21826459  .00004257  00000-0  59334-3 0  9995
2 27607  64.5565  45.8305 0031835 141.2922 219.0472 14.78636432147451
Epoch (UTC): 18 April 2024 05:14:18
Eccentricity: 0.0031835
inclination: 64.5565°
perigee height: 611 km
apogee height: 656 km
right ascension of ascending node: 45.8305°
argument of perigee: 141.2922°
revolutions per day: 14.78636432
mean anomaly at epoch: 219.0472°
orbit number at epoch: 14745

The dashed part of the orbit path shows where the satellite is in the earth's shadow,  

DLR